La Junta, CO

1:34 AM MST on December 10, 2019 (GMT -0700)
La Junta Municipal

Weather History for KLHX - July, 2019

Change the Weather History Date:

Sunday, July 21, 2019

  Actual Average Record
Temperature  
Mean Temperature 78 °F -  
Max Temperature 91 °F 94 °F 108 °F (1981)
Min Temperature 64 °F 64 °F 55 °F (1961)
Degree Days  
Heating Degree Days 0 0  
Month to date heating degree days 0 0  
Since 1 June heating degree days 5 16  
Since 1 July heating degree days 0 0  
Cooling Degree Days 13 14  
Growing Degree Days 28 (Base 50)    
Moisture  
Dew Point 63 °F    
Average Humidity 62    
Maximum Humidity 87    
Minimum Humidity 37    
Precipitation  
Precipitation 0.51 in 0.07 in 1.40 in (1966)
Month to date precipitation 1.39 1.22  
Year to date precipitation 5.00 6.87  
Sea Level Pressure  
Sea Level Pressure 30.03 in    
Wind  
Wind Speed 9 mph (West)    
Max Wind Speed 22 mph    
Max Gust Speed 30 mph    
Visibility 9 miles    
Events Rain , Thunderstorm    
T = Trace of Precipitation, MM = Missing Value Source: NWS Daily Summary

Daily Weather History Graph

Daily Weather History Graph

Search for Another Location

Airport or City:

Astronomy

Jul. 21, 2019 Rise Set
Actual Time 5:47 AM MDT 8:12 PM MDT
Civil Twilight 5:17 AM MDT 8:42 PM MDT
Nautical Twilight 4:40 AM MDT 9:19 PM MDT
Astronomical Twilight 3:59 AM MDT 10:00 PM MDT
Moon 11:12 PM MDT (7/21) 10:06 AM MDT (7/21)
Length of Visible Light 15h 25m
Length of Day
14h 24m
Waning Gibbous, 80% of the Moon is Illuminated
Jul 21
Waning Gibbous
Jul 24
Last Quarter
Jul 31
New
Aug 7
First Quarter
Aug 15
Full

Hourly Weather History & Observations

Time (MDT) Temp. Heat Index Dew Point Humidity Pressure Visibility Wind Dir Wind Speed Gust Speed Precip Events Conditions
12:53 AM 69.1 °F - 62.1 °F 78% 29.88 in 10.0 mi West 6.9 mph - N/A   Clear
1:53 AM 69.1 °F - 63.0 °F 81% 29.87 in 10.0 mi WNW 5.8 mph - N/A   Clear
2:53 AM 69.1 °F - 62.1 °F 78% 29.88 in 10.0 mi South 4.6 mph - N/A   Clear
3:53 AM 68.0 °F - 63.0 °F 84% 29.86 in 10.0 mi Calm Calm - N/A   Clear
4:53 AM 66.0 °F - 62.1 °F 87% 29.87 in 10.0 mi WNW 5.8 mph - N/A   Clear
5:53 AM 66.0 °F - 62.1 °F 87% 29.88 in 10.0 mi WNW 6.9 mph - N/A   Clear
6:53 AM 68.0 °F - 64.0 °F 87% 29.89 in 10.0 mi WSW 5.8 mph - N/A   Clear
7:53 AM 70.0 °F - 64.0 °F 81% 29.89 in 10.0 mi West 5.8 mph - N/A   Clear
8:53 AM 73.9 °F - 64.0 °F 71% 29.90 in 10.0 mi West 5.8 mph - N/A   Clear
2:53 PM 90.0 °F 89.1 °F 59.0 °F 35% 29.90 in 10.0 mi East 11.5 mph 20.7 mph N/A   Clear
3:53 PM 90.0 °F 90.3 °F 62.1 °F 39% 29.91 in 10.0 mi East 17.3 mph 26.5 mph N/A   Clear
4:53 PM 88.0 °F 88.7 °F 63.0 °F 43% 29.94 in 10.0 mi East 17.3 mph 26.5 mph N/A   Clear
5:53 PM 87.1 °F 87.5 °F 62.1 °F 43% 29.93 in 10.0 mi ENE 16.1 mph - N/A   Clear
6:53 PM 84.0 °F 84.5 °F 62.1 °F 47% 29.96 in 10.0 mi East 15.0 mph 25.3 mph N/A   Clear
7:53 PM 81.0 °F 82.5 °F 64.0 °F 56% 30.02 in 10.0 mi ENE 12.7 mph - N/A   Clear
8:53 PM 78.1 °F - 64.0 °F 62% 30.03 in 10.0 mi ENE 12.7 mph - N/A   Scattered Clouds
9:53 PM 75.9 °F - 64.0 °F 67% 30.06 in 10.0 mi East 13.8 mph - N/A   Clear
10:53 PM 72.0 °F - 62.1 °F 71% 30.12 in 10.0 mi SW 13.8 mph - N/A   Scattered Clouds
11:07 PM 71.1 °F - 61.0 °F 70% 30.32 in 10.0 mi West 12.7 mph - N/A   Mostly Cloudy
11:24 PM 70.0 °F - 61.0 °F 73% 30.33 in 10.0 mi West 15.0 mph - 0.00 in Rain , Thunderstorm Light Thunderstorms and Rain
11:31 PM 69.1 °F - 62.1 °F 78% 30.34 in 7.0 mi West 15.0 mph - 0.03 in Rain , Thunderstorm Thunderstorms and Rain
11:42 PM 68.0 °F - 63.0 °F 84% 30.34 in 2.0 mi WSW 13.8 mph - 0.17 in Rain , Thunderstorm Heavy Thunderstorms and Rain
11:47 PM 66.2 °F - 62.6 °F 88% 30.33 in 3.0 mi WSW 15.0 mph - 0.17 in Rain , Thunderstorm Thunderstorms and Rain
11:53 PM 66.0 °F - 62.1 °F 87% 30.16 in 6.0 mi WSW 13.8 mph - 0.19 in Rain , Thunderstorm Thunderstorms and Rain